P/2019 Y2 ( Fuls )

Japanese version
Home page
Updated on February 19, 2020

---------------------------------------------------------------------

* Profile

Discovery Date December 21, 2019
Magnitude 18.8 mag
Discoverer D. Carson Fuls (Mount Lemmon Survey)

* Orbital Elements

Epoch 2020 Feb. 1.0 TT = JDT 2458880.5
T 2020 Jan. 31.65552 TT                                 Bell
q   2.1254810            (2000.0)            P               Q
n   0.15300383     Peri.   92.25253     -0.98919808     -0.11993271
a   3.4620595      Node    80.86742     +0.07544571     -0.90951991
e   0.3860646      Incl.    4.89691     +0.12567861     -0.39798202
P   6.44
From 158 observations 2019 Dec. 21-2020 Feb. 5, mean residual 0".6.

* Finding Charts

* Magnitudes Graph

        m1 = 13.0 + 5 log d + 10.0 log r

---------------------------------------------------------------------

The orbital elements are published on M.P.E.C. 2020-C98.
The charts are made with StellaNavigator Ver.10 (AstroArts).
The magnitudes graphs are made with Comet for Windows.

---------------------------------------------------------------------

Copyright(C) Seiichi Yoshida (comet@aerith.net). All rights reserved.